User: anonymous   Login
Location: Caltech
(34.1382°N, 118.1253°W)
Time: 04:17:29
(UTC-08:00)
Language:

Cosmos 2333 Rocket - Orbit

View from above orbital plane
View from above orbital plane
View from above satellite
View from above satellite

Ground track
Ground track

The orbit data is extracted from the following two-line orbital elements,

1 24298U 96051B   18053.56398726 -.00000131 +00000-0 -44792-4 0  9996
2 24298 070.8397 254.4166 0016324 178.9167 181.1991 14.12465156106916
Epoch (UTC): 22 February 2018 13:32:08
Eccentricity: 0.0016324
inclination: 70.8397°
perigee height: 839 km
apogee height: 863 km
right ascension of ascending node: 254.4166°
argument of perigee: 178.9167°
revolutions per day: 14.12465156
mean anomaly at epoch: 181.1991°
orbit number at epoch: 10691

The dashed part of the orbit path shows where the satellite is in the earth's shadow,  

DLR